Regional Weather Roundup
Issued by NWS

Home | Current Version | Previous Version | Graphics & Text | Print | Product List | Glossary On
Versions: 1 2 3 4 5 6 7 8 9 10 11 12 13 14 15 16 17 18 19 20 21 22 23 24 25 26 27 28 29 30 31 32 33 34 35 36 37 38 39 40 41 42 43 44 45 46 47 48 49 50
000
ASUS44 KMEG 260300
RWRTN
TENNESSEE HOURLY STATE WEATHER ROUNDUP
NATIONAL WEATHER SERVICE MEMPHIS TN
1000 PM CDT THU MAY 25 2017

TNZ002-004-019-021-049-052-054-088>092-260400-
WEST TENNESSEE

CITY           SKY/WX    TMP DP  RH WIND       PRES   REMARKS
MEMPHIS INTL   CLEAR     69  57  65 S9        29.82R
NWS MEMPHIS      N/A     67 N/A N/A MISG        N/A
JACKSON        CLEAR     62  54  74 S3        29.83R
DYERSBURG        N/A    N/A N/A N/A MISG        N/A
$$

TNZ008-025-027-028-033-062-065-066-260400-
NORTH MIDDLE TENNESSEE

CITY           SKY/WX    TMP DP  RH WIND       PRES   REMARKS
NASHVILLE      CLEAR     63  53  70 SW5       29.86R
CLARKSVILLE    CLEAR     62  52  69 S5        29.83R
SMYRNA         PTCLDY    59  54  83 CALM      29.87R
CROSSVILLE     CLEAR     55  51  86 SW3       29.90R
$$

TNZ061-075-076-078-094-096-097-260400-
SOUTH MIDDLE TENNESSEE

CITY           SKY/WX    TMP DP  RH WIND       PRES   REMARKS
WINCHESTER     CLEAR     57  54  88 CALM        N/A
$$

TNZ017-018-042-046-047-260400-
NORTHEAST TENNESSEE

CITY           SKY/WX    TMP DP  RH WIND       PRES   REMARKS
TRI CITIES     CLOUDY    58  56  93 SW3       29.84R
$$

TNZ012-013-036-069-073-074-260400-
CENTRAL EAST TENNESSEE

CITY           SKY/WX    TMP DP  RH WIND       PRES   REMARKS
KNOXVILLE      PTCLDY    60  53  77 SW8       29.86R
OAK RIDGE      CLEAR     60  53  77 CALM      29.87R
GATLINBURG     PTCLDY    57  52  82 SW5       29.86R
$$

TNZ083-085-099-260400-
SOUTHEAST TENNESSEE

CITY           SKY/WX    TMP DP  RH WIND       PRES   REMARKS
CHATTANOOGA    CLEAR     65  51  60 S6        29.89R
$$

SKY/WX REPORTED AS FAIR MEANS FEW OR NO CLOUDS BELOW
12 THOUSAND FEET.





USA.gov is the U.S. government's official web portal to all federal, state and local government web resources and services.